Flag for Germany Weather past 2 weeks in Emden, Lower Saxony, Germany

Now
41 °F

Sunny.


Feels Like: 38 °F
Forecast: 44 / 67 °F
Wind: 5 mph from East

Location: Emden-Koenigspolder


UV Index: 3 (Moderate)

Visibility: 5 mi


Pressure: 30.13 "Hg

Humidity: 95%

Dew point: 40 °F

Location of EmdenLocation

Historic Weather in Emden

°F

Emden temperature yesterday

Maximum temperature yesterday: 51 °F (at 6:00 PM)
Minimum temperature yesterday: 44 °F (at 7:00 AM)
Average temperature yesterday: 47 °F

Past Weeks' High & Low Weather Summary

 TemperatureHumidityPressure
High68 °F (Apr 7, 4:00 PM)100% (Apr 12, 1:00 AM)30.46 "Hg (Apr 12, 1:00 AM)
Low31 °F (Apr 16, 7:00 AM)38% (Apr 17, 3:00 PM)29.62 "Hg (Apr 8, 6:00 AM)
Average49 °F82%30.03 "Hg
* Reported Apr 4 7:00 AM — Apr 19 7:00 AM, Emden, Weather by CustomWeather, © 2014

Note: Actual official high and low records may vary slightly from our data, if they occured in-between our weather recording intervals... More about our weather records

Advertising

Historic Weather Conditions — Data for Previous 24 hours

 ConditionsComfort  
Time TempWeatherWind HumidityBarometerVisibility
7:00 AM
Apr 19
39 °FFog.5 mph97%30.11 "Hg4 mi
6:00 AM38 °FClear.3 mph97%30.09 "Hg6 mi
5:00 AM39 °FClear.3 mph95%30.07 "Hg10 mi
4:00 AM40 °FClear.5 mph93%30.06 "Hg12 mi
3:00 AM41 °FPassing clouds.3 mph94%30.05 "Hg17 mi
2:00 AM43 °FPassing clouds.3 mph93%30.03 "Hg19 mi
1:00 AM42 °FOvercast.3 mph96%30.02 "Hg17 mi
12:00 AM43 °FLow clouds.2 mph93%30.01 "Hg37 mi
11:00 PM
Apr 18
46 °FOvercast.7 mph82%29.99 "Hg28 mi
10:00 PM46 °FOvercast.8 mph79%29.99 "Hg31 mi
9:00 PM45 °FPassing clouds.6 mph82%29.98 "Hg25 mi
8:00 PM47 °FPassing clouds.8 mph81%29.98 "Hg22 mi
7:00 PM49 °FSunny.9 mph74%29.97 "Hg13 mi
6:00 PM51 °FPassing clouds.9 mph71%29.96 "Hg11 mi
5:00 PM50 °FPartly sunny.8 mph75%29.96 "Hg22 mi
4:00 PM50 °FOvercast.8 mph71%29.96 "Hg16 mi
3:00 PM49 °FOvercast.9 mph73%29.96 "Hg19 mi
2:00 PM48 °FOvercast.9 mph75%29.94 "Hg19 mi
1:00 PM49 °FOvercast.10 mph73%29.92 "Hg14 mi
12:00 PM48 °FOvercast.9 mph78%29.92 "Hg25 mi
11:00 AM46 °FDrizzle. Low clouds.8 mph84%29.90 "Hg16 mi
10:00 AM46 °FLow clouds.8 mph82%29.89 "Hg25 mi
9:00 AM46 °FOvercast.7 mph73%29.88 "Hg43 mi
8:00 AM45 °FDrizzle. Overcast.8 mph79%29.87 "Hg22 mi
Weather by CustomWeather, © 2014

See weather overview